This demonstration page uses our WeatherBlox Daily Observations layout. Learn more.

Left ArrowRight Arrow

Hourly Observations for September 18, 2021

Temp ( °F °C ) Dew Point ( °F °C ) Humidity (%) Winds ( mph kmh ) Pressure ( in mb ) Visibility ( mi km ) Precip ( " mm )
12:53 am 00:53 Clear 77 25 52 11.1 42 42 ESE 9 15 29.90 1013 10 16 0.00 0.00
1:53 am 01:53 Clear 79 26.1 53 11.7 41 41 SE 12 19 29.91 1013 10 16 0.00 0.00
2:53 am 02:53 Clear 78 25.6 55 12.8 45 45 ESE 9 15 29.92 1013 10 16 0.00 0.00
3:53 am 03:53 Clear 77 25 56 13.3 48 48 SE 10 17 29.91 1013 10 16 0.00 0.00
4:53 am 04:53 Clear 75 23.9 56 13.3 52 52 Calm 29.93 1013 10 16 0.00 0.00
5:53 am 05:53 Clear 71 21.7 56 13.3 59 59 N 6 9 29.94 1014 10 16 0.00 0.00
6:53 am 06:53 Clear 69 20.6 55 12.8 61 61 NE 5 7 29.96 1015 10 16 0.00 0.00
7:53 am 07:53 Sunny 69 20.6 53 11.7 57 57 NNE 5 7 29.98 1015 10 16 0.00 0.00
8:53 am 08:53 Sunny 74 23.3 56 13.3 54 54 ENE 13 20 30.00 1016 10 16 0.00 0.00
9:53 am 09:53 Sunny 78 25.6 59 15 52 52 E 10 17 30.01 1016 10 16 0.00 0.00
10:53 am 10:53 Sunny 83 28.3 60 15.6 46 46 ESE 9 15 30.01 1016 10 16 0.00 0.00
11:53 am 11:53 Sunny 85 29.4 60 15.6 43 43 SSE 8 13 30.01 1016 10 16 0.00 0.00
12:53 pm 12:53 Sunny 88 31.1 60 15.6 39 39 E 7 11 30.00 1016 10 16 0.00 0.00
1:53 pm 13:53 Sunny 91 32.8 59 15 34 34 NNE 3 6 29.97 1015 10 16 0.00 0.00
2:53 pm 14:53 Sunny 93 33.9 54 12.2 27 27 S 10 17 29.93 1014 10 16 0.00 0.00
3:53 pm 15:53 Mostly Sunny 95 35 54 12.2 25 25 VRB 7 11 29.89 1012 10 16 0.00 0.00
4:53 pm 16:53 Sunny 97 36.1 51 10.6 21 21 VRB 3 6 29.86 1011 10 16 0.00 0.00
5:53 pm 17:53 Cloudy 89 31.7 55 12.8 31 31 NE 21 33 29.89 1012 10 16 0.00 0.00
6:00 pm 18:00 Cloudy 87 30.6 55 12.8 34 34 NE 16 26 29.82 1010 10 16 0.00 0.00
6:53 pm 18:53 Mostly Cloudy 87 30.6 56 13.3 35 35 ENE 22 35 29.89 1012 10 16 0.00 0.00
7:53 pm 19:53 Mostly Cloudy 87 30.6 54 12.2 32 32 ESE 9 15 29.89 1012 10 16 0.00 0.00
8:53 pm 20:53 Mostly Clear 85 29.4 54 12.2 35 35 ESE 9 15 29.89 1012 10 16 0.00 0.00
9:53 pm 21:53 Clear 81 27.2 56 13.3 42 42 SE 9 15 29.91 1013 10 16 0.00 0.00
10:53 pm 22:53 Clear 79 26.1 57 13.9 47 47 SSE 6 9 29.93 1013 10 16 0.00 0.00
11:53 pm 23:53 Clear 76 24.4 55 12.8 48 48 SE 8 13 29.93 1014 10 16 0.00 0.00

Powered by AerisWeather